{"data":{"norad_id":52694,"intl_designator":"2022-053AQ","name":"STARLINK-4072","alt_names":[],"object_type":"PAYLOAD","status":"ACTIVE","operator":null,"country":"US","launch_date":"2022-05-18","launch_site_code":"AFETR","launch_vehicle":null,"mission":null,"orbit_class":"UNKNOWN","rcs_meters":null,"size_class":null,"mass_kg":null,"dimensions":null,"purposes":["comms"],"wikipedia_slug":null,"has_3d_model":false,"image_url":null,"decayed_at":null,"tle_current":{"epoch":"2026-05-25T00:38:06.652032Z","epoch_age_seconds":83490,"freshness":"FRESH","line1":"1 52694U 22053AQ  26145.02646588  .00000561  00000+0  53353-4 0  9999","line2":"2 52694  53.2129 161.4329 0001084  73.3200 286.7911 15.08841187222670","mean_motion":15.08841187,"eccentricity":0.0001084,"inclination_deg":53.2129,"raan_deg":161.4329,"arg_perigee_deg":73.32,"mean_anomaly_deg":286.7911,"bstar":5.3353e-5,"rev_number":22267,"period_min":95.437479597381,"perigee_km":538.98986294148,"apogee_km":540.48965862322,"semimajor_km":6917.8767607823,"source":"CELESTRAK","updated_at":"2026-05-25T13:38:17.237041Z"}}}